Regional Weather Roundup
Issued by NWS

Home | Current Version | Previous Version | Graphics & Text | Print | Product List | Glossary On
Versions: 1 2 3 4 5 6 7 8 9 10 11 12 13 14 15 16 17 18 19 20 21 22 23 24 25 26 27
000
ASUS45 KSLC 210510
RWRUT

UTAH REGIONAL WEATHER ROUNDUP
NATIONAL WEATHER SERVICE SALT LAKE CITY UT
1100 PM MDT FRI OCT 20 2017

UTZ001>011-023>025-210600-

NORTHERN UTAH

CITY           SKY/WX    TMP DP  RH WIND       PRES   REMARKS
BRIGHAM CITY   CLEAR     38  25  58 CALM      30.00R
HILL AFB       PTCLDY    39  26  60 NE3       29.99R
LOGAN          PTCLDY    40  27  59 SW12      29.96R WCI  33
OGDEN          PTCLDY    38  28  67 NW6       29.98R WCI  33
SALT LAKE CITY PTCLDY    45  26  47 NW9       29.99R
TOOELE VALLEY  CLEAR     39  23  52 CALM      30.01R
WENDOVER       PTCLDY    43  20  39 NW15      30.01R
WEST JORDAN    CLOUDY    41  26  54 NW6       30.00R

$$

UTZ011>015-024>027-210600-

CENTRAL/NORTHEAST UTAH

CITY           SKY/WX    TMP DP  RH WIND       PRES   REMARKS
PROVO AIRPORT  NOT AVBL
MOAB/CANYONLAN CLOUDY    52  16  24 W16G28    29.83R
DELTA          CLEAR     39  14  35 N5        30.01R
PRICE          PTCLDY    38  18  44 NW6       29.90R WCI  33
ROOSEVELT      CLEAR     39  18  41 W9G21     29.88R WCI  33
VERNAL         CLOUDY    43  22  43 SE7       29.86R

$$

UTZ013>016-019>022-027-210600-

SOUTHERN UTAH

CITY           SKY/WX    TMP DP  RH WIND       PRES   REMARKS
BRYCE CANYON   PTCLDY    33  23  66 NW10      29.97R WCI  25
CEDAR CITY     CLEAR     41  21  44 N10       29.99R
MILFORD        CLEAR     37  17  44 N12       29.99R WCI  29
ST GEORGE      PTCLDY    63  23  21 VRB6      29.85R
HANKSVILLE     PTCLDY    52  19  28 NW16G26   29.89R
BLANDING         N/A     55  28  35 NW15G21   29.88R

$$

REGIONAL REPORTS     COLORADO/ARIZONA

CITY           SKY/WX    TMP DP  RH WIND       PRES   REMARKS
CRAIG, CO      LGT SNOW  33  32  96 S7        29.93R FOG     WCI  27
GRAND JUNCTION CLOUDY    53  37  54 W18G26    29.77R
RIFLE, CO      LGT RAIN  43  38  82 W10G26    29.85R
MONTROSE, CO   LGT RAIN  52  38  58 W15G35    29.82R
CORTEZ, CO     LGT RAIN  59  30  33 W17G25    29.80R
COLORADO CITY    N/A     54  28  37 W8        29.92R
PAGE, AZ       MOCLDY    60  38  43 W12G20    29.82R
GRAND CANYON   CLOUDY    47  35  63 SW10      29.97S
KINGMAN, AZ    MOCLDY    54  34  46 S7        29.87R
FLAGSTAFF, AZ  PTCLDY    49  40  71 SW18G26   29.98R

$$

REGIONAL REPORTS    NEVADA/IDAHO/WYOMING

CITY           SKY/WX    TMP DP  RH WIND       PRES   REMARKS
LAS VEGAS, NV  MOCLDY    70  10  10 NW17G26   29.83R
ELY, NY        PTCLDY    30  13  49 W9        30.04R WCI  22
ELKO, NV       PTCLDY    29  20  69 SW6       30.05R WCI  23
POCATELLO, ID  CLOUDY    40  28  62 SW26G36   29.93R WCI  29
BURLEY, ID     CLOUDY    40  29  64 W15       29.98R WCI  32
FORT BRIDGER,    N/A     30  23  75 W13       29.95R WCI  20
EVANSTON, WY   CLEAR     28  20  71 W16       29.94R WCI  16
ROCK SPRINGS,  CLEAR     31  20  63 W17       29.89R WCI  19

$$




USA.gov is the U.S. government's official web portal to all federal, state and local government web resources and services.